{"data":{"norad_id":62866,"epoch":"2026-05-25T03:38:54.591936Z","epoch_age_seconds":55734,"freshness":"FRESH","line1":"1 62866U 25022N   26145.15202074  .00026127  00000+0  78126-3 0  9992","line2":"2 62866  53.1589 133.2667 0001391  85.8952 274.2209 15.34418001 73621","mean_motion":15.34418001,"eccentricity":0.0001391,"inclination_deg":53.1589,"raan_deg":133.2667,"arg_perigee_deg":85.8952,"mean_anomaly_deg":274.2209,"bstar":0.00078126,"rev_number":7362,"period_min":93.846657107876,"perigee_km":461.69818452937,"apogee_km":463.60129139987,"semimajor_km":6840.7867379646,"source":"CELESTRAK","updated_at":"2026-05-25T13:38:19.785603Z"}}